• In Belgium
  • List of Countries
  • For 7 days
  • Water Temperature
  • Satellite Maps
  • Weather Map
  • Weather Widgets
  • user-avatar
    Login

    Hourly Weather Kantharalak

    Today, 26 April, Thursday

    Time Temperature Precipitation Wind Pressure Humidity
    00:00 +30°C° 0.7 mm 2 mps 742 mmHg 75%
    01:00 +30°C° 0 mm 1 mps 743 mmHg 77%
    02:00 +29°C° 0.2 mm 1 mps 742 mmHg 78%
    03:00 +29°C° 0.2 mm 1 mps 742 mmHg 79%
    04:00 +29°C° 0.2 mm 1 mps 742 mmHg 80%
    05:00 +29°C° 2 mm 1 mps 743 mmHg 79%
    06:00 +29°C° 2 mm 1 mps 743 mmHg 78%
    07:00 +30°C° 2 mm 1 mps 744 mmHg 77%
    08:00 +31°C° 1 mm 1 mps 744 mmHg 70%
    09:00 +32°C° 1 mm 2 mps 744 mmHg 63%
    10:00 +35°C° 1 mm 2 mps 744 mmHg 57%
    11:00 +36°C° 0 mm 2 mps 744 mmHg 52%
    12:00 +37°C° 0 mm 2 mps 743 mmHg 48%
    13:00 +38°C° 0 mm 2 mps 743 mmHg 44%
    14:00 +38°C° 0 mm 2 mps 742 mmHg 45%
    15:00 +38°C° 0 mm 2 mps 742 mmHg 45%
    16:00 +38°C° 0 mm 2 mps 741 mmHg 46%
    17:00 +36°C° 0.1 mm 2 mps 741 mmHg 49%
    18:00 +35°C° 0.1 mm 2 mps 741 mmHg 53%
    19:00 +33°C° 0.1 mm 1 mps 742 mmHg 57%
    20:00 +32°C° 0.7 mm 2 mps 742 mmHg 61%
    21:00 +31°C° 0.7 mm 2 mps 743 mmHg 64%
    22:00 +31°C° 0.7 mm 2 mps 743 mmHg 68%
    23:00 +30°C° 0.2 mm 2 mps 743 mmHg 69%

    Tomorrow, 27 April, Friday

    Time Temperature Precipitation Wind Pressure Humidity
    00:00 +30°C° 0.2 mm 2 mps 743 mmHg 70%
    01:00 +30°C° 0.2 mm 2 mps 743 mmHg 71%
    02:00 +29°C° 0.6 mm 1 mps 743 mmHg 73%
    03:00 +29°C° 0.6 mm 1 mps 743 mmHg 75%
    04:00 +29°C° 0.6 mm 1 mps 743 mmHg 77%
    05:00 +29°C° 1.7 mm 1 mps 743 mmHg 78%
    06:00 +29°C° 1.7 mm 2 mps 744 mmHg 79%
    07:00 +29°C° 1.7 mm 2 mps 745 mmHg 81%
    08:00 +29°C° 2 mm 2 mps 745 mmHg 77%
    09:00 +30°C° 2 mm 2 mps 746 mmHg 73%
    10:00 +31°C° 2 mm 2 mps 746 mmHg 69%
    11:00 +31°C° 1.7 mm 2 mps 746 mmHg 69%
    12:00 +31°C° 1.7 mm 2 mps 746 mmHg 68%
    13:00 +31°C° 1.7 mm 2 mps 745 mmHg 68%
    14:00 +31°C° 0.3 mm 2 mps 745 mmHg 70%
    15:00 +30°C° 0.3 mm 2 mps 744 mmHg 72%
    16:00 +30°C° 0.3 mm 2 mps 744 mmHg 74%
    17:00 +29°C° 0 mm 1 mps 744 mmHg 77%
    18:00 +29°C° 0 mm 1 mps 744 mmHg 80%
    19:00 +28°C° 0 mm 1 mps 744 mmHg 83%
    20:00 +28°C° 0 mm 1 mps 744 mmHg 82%
    21:00 +26°C° 0 mm 0 mps 745 mmHg 82%
    22:00 +26°C° 0 mm 0 mps 745 mmHg 82%
    23:00 +26°C° 0.1 mm 0 mps 745 mmHg 82%

    Day after tomorrow, 28 April, Saturday

    Time Temperature Precipitation Wind Pressure Humidity
    00:00 +26°C° 0.1 mm 0 mps 745 mmHg 82%
    01:00 +25°C° 0.1 mm 0 mps 745 mmHg 82%
    02:00 +25°C° 0.4 mm 0 mps 744 mmHg 82%
    03:00 +25°C° 0.4 mm 0 mps 744 mmHg 83%
    04:00 +27°C° 0.4 mm 1 mps 744 mmHg 83%
    05:00 +27°C° 0.1 mm 1 mps 745 mmHg 82%
    06:00 +28°C° 0.1 mm 1 mps 745 mmHg 82%
    07:00 +28°C° 0.1 mm 1 mps 745 mmHg 81%
    08:00 +29°C° 0 mm 2 mps 746 mmHg 73%
    09:00 +31°C° 0 mm 2 mps 746 mmHg 65%
    10:00 +34°C° 0 mm 3 mps 746 mmHg 57%
    11:00 +35°C° 0 mm 2 mps 745 mmHg 52%
    12:00 +37°C° 0 mm 2 mps 745 mmHg 47%
    13:00 +38°C° 0 mm 2 mps 744 mmHg 42%
    14:00 +36°C° 0 mm 1 mps 743 mmHg 44%
    15:00 +36°C° 0 mm 1 mps 742 mmHg 46%
    16:00 +33°C° 0 mm 0 mps 742 mmHg 48%
    17:00 +32°C° 0.1 mm 0 mps 742 mmHg 52%
    18:00 +33°C° 0.1 mm 1 mps 743 mmHg 55%
    19:00 +32°C° 0.1 mm 1 mps 743 mmHg 59%
    20:00 +31°C° 0.2 mm 1 mps 743 mmHg 64%
    21:00 +30°C° 0.2 mm 2 mps 744 mmHg 68%
    22:00 +29°C° 0.2 mm 2 mps 744 mmHg 73%
    23:00 +29°C° 0.6 mm 2 mps 744 mmHg 75%

    29 April, Sunday

    Time Temperature Precipitation Wind Pressure Humidity
    00:00 +29°C° 0.6 mm 2 mps 744 mmHg 78%
    01:00 +28°C° 0.6 mm 2 mps 743 mmHg 80%
    02:00 +28°C° 0.6 mm 2 mps 743 mmHg 82%
    03:00 +27°C° 0.6 mm 1 mps 743 mmHg 83%
    04:00 +27°C° 0.6 mm 1 mps 743 mmHg 85%
    05:00 +28°C° 0.6 mm 1 mps 743 mmHg 83%
    06:00 +28°C° 0.6 mm 1 mps 744 mmHg 81%
    07:00 +29°C° 0.6 mm 1 mps 744 mmHg 79%
    08:00 +30°C° 0.6 mm 1 mps 745 mmHg 74%
    09:00 +31°C° 0.6 mm 1 mps 745 mmHg 69%
    10:00 +32°C° 0.6 mm 1 mps 745 mmHg 65%
    11:00 +33°C° 0.2 mm 1 mps 744 mmHg 58%
    12:00 +35°C° 0.2 mm 1 mps 744 mmHg 52%
    13:00 +37°C° 0.2 mm 2 mps 743 mmHg 46%
    14:00 +35°C° 0 mm 1 mps 742 mmHg 48%
    15:00 +35°C° 0 mm 1 mps 742 mmHg 49%
    16:00 +34°C° 0 mm 1 mps 741 mmHg 51%
    17:00 +33°C° 0.1 mm 1 mps 741 mmHg 54%
    18:00 +33°C° 0.1 mm 1 mps 742 mmHg 58%
    19:00 +32°C° 0.1 mm 1 mps 742 mmHg 61%
    20:00 +31°C° 0.9 mm 1 mps 742 mmHg 65%
    21:00 +30°C° 0.9 mm 1 mps 743 mmHg 69%
    22:00 +30°C° 0.9 mm 1 mps 743 mmHg 73%
    23:00 +29°C° 1.4 mm 1 mps 743 mmHg 76%

    30 April, Monday

    Time Temperature Precipitation Wind Pressure Humidity
    00:00 +29°C° 1.4 mm 1 mps 743 mmHg 79%
    01:00 +28°C° 1.4 mm 1 mps 743 mmHg 82%
    02:00 +28°C° 3.1 mm 1 mps 743 mmHg 82%
    03:00 +28°C° 3.1 mm 2 mps 743 mmHg 83%
    04:00 +28°C° 3.1 mm 2 mps 743 mmHg 83%
    05:00 +28°C° 1.1 mm 2 mps 743 mmHg 83%
    06:00 +28°C° 1.1 mm 1 mps 744 mmHg 83%
    07:00 +28°C° 1.1 mm 1 mps 745 mmHg 82%
    08:00 +30°C° 0.9 mm 1 mps 745 mmHg 76%
    09:00 +31°C° 0.9 mm 1 mps 745 mmHg 70%
    10:00 +32°C° 0.9 mm 1 mps 745 mmHg 64%
    11:00 +33°C° 0.4 mm 1 mps 745 mmHg 60%
    12:00 +34°C° 0.4 mm 1 mps 744 mmHg 57%
    13:00 +35°C° 0.4 mm 1 mps 743 mmHg 53%
    14:00 +34°C° 0.8 mm 1 mps 743 mmHg 56%
    15:00 +33°C° 0.8 mm 1 mps 742 mmHg 59%
    16:00 +33°C° 0.8 mm 1 mps 742 mmHg 62%
    17:00 +32°C° 0.6 mm 1 mps 742 mmHg 67%
    18:00 +31°C° 0.6 mm 1 mps 742 mmHg 71%
    19:00 +30°C° 0.6 mm 1 mps 743 mmHg 76%
    20:00 +29°C° 0.1 mm 1 mps 743 mmHg 77%
    21:00 +29°C° 0.1 mm 1 mps 744 mmHg 77%
    22:00 +29°C° 0.1 mm 1 mps 744 mmHg 77%
    23:00 +28°C° 0.2 mm 1 mps 744 mmHg 79%

    1 May, Tuesday

    Time Temperature Precipitation Wind Pressure Humidity
    00:00 +28°C° 0.2 mm 2 mps 743 mmHg 80%
    01:00 +28°C° 0.2 mm 2 mps 743 mmHg 81%
    02:00 +27°C° 0.1 mm 2 mps 743 mmHg 82%
    03:00 +27°C° 0.1 mm 1 mps 743 mmHg 84%
    04:00 +27°C° 0.1 mm 1 mps 743 mmHg 85%
    05:00 +27°C° 0.2 mm 1 mps 744 mmHg 84%
    06:00 +28°C° 0.2 mm 1 mps 744 mmHg 82%
    07:00 +28°C° 0.2 mm 1 mps 745 mmHg 80%
    08:00 +30°C° 0.4 mm 1 mps 745 mmHg 73%
    09:00 +31°C° 0.4 mm 1 mps 745 mmHg 67%
    10:00 +31°C° 0.4 mm 0 mps 745 mmHg 60%
    11:00 +32°C° 0.8 mm 0 mps 744 mmHg 56%
    12:00 +35°C° 0.8 mm 1 mps 744 mmHg 52%
    13:00 +37°C° 0.8 mm 1 mps 743 mmHg 48%
    14:00 +36°C° 0.1 mm 1 mps 742 mmHg 48%
    15:00 +36°C° 0.1 mm 1 mps 742 mmHg 48%
    16:00 +36°C° 0.1 mm 1 mps 742 mmHg 48%
    17:00 +35°C° 0 mm 1 mps 742 mmHg 50%
    18:00 +34°C° 0 mm 1 mps 742 mmHg 53%
    19:00 +33°C° 0 mm 1 mps 743 mmHg 56%
    20:00 +32°C° 0.5 mm 1 mps 743 mmHg 59%
    21:00 +32°C° 0.5 mm 1 mps 743 mmHg 62%
    22:00 +31°C° 0.5 mm 1 mps 743 mmHg 65%
    23:00 +31°C° 0 mm 1 mps 743 mmHg 67%
    Show more